DW2659 Weather Reports


time (UTC)temp
C
wind
direction
speed
KPH
gust
KPH
rain 1hr
cm
rain 24hr
cm
rain mn
cm
humidity
%
barometer
mb
20260902163903 33 96 3.2 4.8 0.00 0.00 0.00 57 1019.6
20260902163404 34 158 3.2 4.8 0.00 0.00 0.00 55 1019.7
20260902162904 34 262 1.6 4.8 0.00 0.00 0.00 59 1019.7
20260902162404 33 0 0.0 3.2 0.00 0.00 0.00 58 1019.7
20260902160903 32 232 3.2 9.7 0.00 0.00 0.00 61 1019.8
20260902160404 32 333 4.8 9.7 0.00 0.00 0.00 62 1019.8
20260902154903 33 5 1.6 4.8 0.00 0.00 0.00 60 1020.1
20260902153404 32 31 1.6 8.0 0.00 0.00 0.00 61 1020.1
20260902152905 32 246 4.8 8.0 0.00 0.00 0.00 60 1020.1
20260902152404 32 130 3.2 8.0 0.00 0.00 0.00 65 1020.1
20260902151903 31 132 3.2 8.0 0.00 0.00 0.00 64 1020.1
20260902150904 31 17 1.6 4.8 0.00 0.00 0.00 67 1020.1
20260902145905 31 355 1.6 3.2 0.00 0.00 0.00 68 1020.1
20260902145403 31 70 1.6 4.8 0.00 0.00 0.00 67 1020.1
20260902144904 31 67 1.6 4.8 0.00 0.00 0.00 69 1020.1
20260902143905 30 138 1.6 4.8 0.00 0.00 0.00 69 1020.1
20260902143404 30 111 1.6 4.8 0.00 0.00 0.00 70 1020.1
20260902142904 30 72 0.0 1.6 0.00 0.00 0.00 70 1020.2
20260902142405 29 138 3.2 4.8 0.00 0.00 0.00 71 1020.2
20260902141904 29 113 1.6 3.2 0.00 0.00 0.00 71 1020.2
20260902141403 28 113 1.6 4.8 0.00 0.00 0.00 72 1020.2
20260902140905 28 113 0.0 1.6 0.00 0.00 0.00 72 1020.2
20260902140404 28 113 0.0 3.2 0.00 0.00 0.00 72 1020.2
20260902135405 28 113 0.0 1.6 0.00 0.00 0.00 74 1020.1
20260902134403 28 141 3.2 4.8 0.00 0.00 0.00 75 1020.2
20260902133904 27 67 1.6 3.2 0.00 0.00 0.00 77 1020.2
20260902133405 27 67 0.0 3.2 0.00 0.00 0.00 78 1020.2
20260902132903 26 67 0.0 1.6 0.00 0.00 0.00 80 1020.2
20260902132404 26 67 1.6 3.2 0.00 0.00 0.00 82 1020.2
20260902131904 25 67 1.6 3.2 0.00 0.00 0.00 83 1020.1
20260902131404 25 69 0.0 1.6 0.00 0.00 0.00 86 1020.1
20260902130904 24 69 1.6 3.2 0.00 0.00 0.00 88 1020.1
20260902130405 23 69 1.6 3.2 0.00 0.00 0.00 91 1020.1
20260902125404 22 355 0.0 1.6 0.00 0.00 0.00 93 1020.0
20260902124906 22 355 0.0 0.0 0.00 0.00 0.00 93 1020.0
20260902124404 22 355 0.0 0.0 0.00 0.00 0.00 94 1020.0
20260902123904 22 355 0.0 0.0 0.00 0.00 0.00 94 1020.0
20260902123405 22 355 0.0 0.0 0.00 0.00 0.00 94 1020.0
20260902122904 21 355 0.0 0.0 0.00 0.00 0.00 94 1019.9
20260902122404 21 355 0.0 0.0 0.00 0.00 0.00 94 1019.4
20260902121904 21 355 0.0 0.0 0.00 0.00 0.00 94 1019.4
20260902121404 21 355 0.0 0.0 0.00 0.00 0.00 94 1019.4
20260902120402 21 355 0.0 0.0 0.00 0.00 0.00 93 1019.4
20260902115904 21 355 0.0 0.0 0.00 0.00 0.00 93 1019.4
20260902115402 21 355 0.0 0.0 0.00 0.00 0.00 93 1019.4
20260902114903 21 355 0.0 0.0 0.00 0.00 0.00 93 1019.4
20260902113903 21 355 0.0 0.0 0.00 0.00 0.00 93 1019.3
20260902113402 21 355 0.0 0.0 0.00 0.00 0.00 93 1019.3
20260902112403 21 355 0.0 0.0 0.00 0.00 0.00 93 1019.2
20260902111902 21 355 0.0 0.0 0.00 0.00 0.00 93 1019.1
20260902111402 21 355 0.0 0.0 0.00 0.00 0.00 93 1018.9
20260902110904 21 355 0.0 0.0 0.00 0.00 0.00 92 1018.9
20260902110403 21 355 0.0 0.0 0.00 0.00 0.00 92 1018.9
20260902105902 21 355 0.0 0.0 0.00 0.00 0.00 92 1018.9
20260902105404 21 355 0.0 0.0 0.00 0.00 0.00 92 1018.9
20260902104903 21 355 0.0 0.0 0.00 0.00 0.00 92 1018.9
20260902104402 21 355 0.0 0.0 0.00 0.00 0.00 92 1018.6
20260902103904 21 355 0.0 0.0 0.00 0.00 0.00 92 1018.6
20260902103403 21 355 0.0 0.0 0.00 0.00 0.00 92 1018.6
20260902102902 21 355 0.0 0.0 0.00 0.00 0.00 92 1018.6
20260902102404 21 355 0.0 1.6 0.00 0.00 0.00 92 1018.6
20260902100904 21 355 0.0 1.6 0.00 0.00 0.00 92 1018.6
20260902100402 21 355 0.0 1.6 0.00 0.00 0.00 92 1018.5
20260902095404 21 355 0.0 0.0 0.00 0.00 0.00 92 1018.2
20260902094902 21 355 0.0 0.0 0.00 0.00 0.00 92 1018.2
20260902094402 21 355 0.0 0.0 0.00 0.00 0.00 92 1018.2
20260902093904 21 355 0.0 0.0 0.00 0.00 0.00 92 1018.2
20260902093403 21 355 0.0 0.0 0.00 0.00 0.00 92 1018.2
20260902092903 21 355 0.0 0.0 0.00 0.00 0.00 92 1018.2
20260902091902 21 355 0.0 0.0 0.00 0.00 0.00 92 1018.2
20260902091402 21 355 0.0 0.0 0.00 0.00 0.00 91 1018.2
20260902090904 21 355 0.0 0.0 0.00 0.00 0.00 92 1018.2
20260902090403 21 355 0.0 0.0 0.00 0.00 0.00 91 1018.2
20260902085903 21 355 0.0 0.0 0.00 0.00 0.00 91 1018.1
20260902085403 21 355 0.0 0.0 0.00 0.00 0.00 91 1018.1
20260902084902 21 355 0.0 0.0 0.00 0.00 0.00 91 1018.1
20260902084402 21 355 0.0 0.0 0.00 0.00 0.00 91 1018.0
20260902083903 21 355 0.0 0.0 0.00 0.00 0.00 91 1018.0
20260902083403 21 355 0.0 0.0 0.00 0.00 0.00 91 1017.9
20260902082902 21 355 0.0 0.0 0.00 0.00 0.00 91 1017.8
20260902082404 21 355 0.0 0.0 0.00 0.00 0.00 91 1017.8
20260902081403 21 355 0.0 0.0 0.00 0.00 0.00 91 1017.7
20260902080403 21 355 0.0 0.0 0.00 0.00 0.00 91 1017.7
20260902075902 21 355 0.0 0.0 0.00 0.00 0.00 91 1017.8
20260902075404 22 355 0.0 1.6 0.00 0.00 0.00 91 1017.8
20260902074903 22 355 0.0 0.0 0.00 0.00 0.00 91 1017.8
20260902074402 22 355 0.0 1.6 0.00 0.00 0.00 91 1017.8
20260902073904 22 355 0.0 1.6 0.00 0.00 0.00 90 1017.8
20260902072903 22 355 0.0 0.0 0.00 0.00 0.00 90 1017.8
20260902072404 22 355 0.0 1.6 0.00 0.00 0.00 90 1017.8
20260902071902 22 355 1.6 1.6 0.00 0.00 0.00 90 1017.8
20260902071402 22 355 0.0 0.0 0.00 0.00 0.00 90 1017.9
20260902070904 22 355 0.0 0.0 0.00 0.00 0.00 90 1017.9
20260902065903 22 355 0.0 1.6 0.00 0.00 0.00 90 1017.8
20260902065404 22 355 0.0 1.6 0.00 0.00 0.00 90 1017.8
20260902064903 22 355 0.0 0.0 0.00 0.00 0.00 90 1017.8
20260902063904 22 355 0.0 0.0 0.00 0.00 0.00 89 1017.9
20260902063403 22 355 0.0 0.0 0.00 0.00 0.00 89 1017.9
20260902062902 22 355 0.0 0.0 0.00 0.00 0.00 89 1018.0
20260902062405 22 355 0.0 0.0 0.00 0.00 0.00 89 1018.0
20260902061902 22 355 0.0 0.0 0.00 0.00 0.00 90 1018.0
20260902061402 22 355 0.0 0.0 0.00 0.00 0.00 89 1018.0
20260902060904 22 355 0.0 1.6 0.00 0.00 0.00 89 1018.0
20260902060402 22 355 1.6 1.6 0.00 0.00 0.00 89 1018.0
20260902055903 22 355 0.0 0.0 0.00 0.00 0.00 89 1018.1
20260902055405 22 355 0.0 0.0 0.00 0.00 0.00 89 1018.1
20260902054902 22 355 0.0 0.0 0.00 0.00 0.00 89 1018.1
20260902054402 22 355 0.0 0.0 0.00 0.00 0.00 89 1018.1
20260902053904 22 355 0.0 0.0 0.00 0.00 0.00 88 1018.1
20260902053402 22 355 0.0 0.0 0.00 0.00 0.00 88 1018.1
20260902052903 22 355 0.0 0.0 0.00 0.00 0.00 88 1018.0
20260902051904 22 355 0.0 0.0 0.00 0.00 0.00 88 1018.0
20260902051402 22 355 0.0 0.0 0.00 0.00 0.00 88 1018.0
20260902050903 22 355 0.0 0.0 0.00 0.00 0.00 88 1018.0
20260902050403 22 355 0.0 0.0 0.00 0.00 0.00 88 1018.0
20260902045903 22 355 0.0 0.0 0.00 0.00 0.00 87 1018.0
20260902045403 22 355 0.0 0.0 0.00 0.00 0.00 87 1018.0
20260902044904 23 355 0.0 0.0 0.00 0.00 0.00 87 1018.0
20260902044402 23 355 0.0 1.6 0.00 0.00 0.00 87 1018.1
20260902043902 23 355 0.0 1.6 0.00 0.00 0.00 87 1018.1
20260902043404 23 355 0.0 0.0 0.00 0.00 0.00 87 1018.1
20260902042903 23 355 0.0 0.0 0.00 0.00 0.00 87 1018.2
20260902042403 23 355 0.0 0.0 0.00 0.00 0.00 86 1018.2
20260902041903 23 355 0.0 0.0 0.00 0.00 0.00 86 1018.2
20260902041402 23 355 0.0 0.0 0.00 0.00 0.00 86 1018.3
20260902040902 23 355 0.0 0.0 0.00 0.00 0.00 86 1018.3
20260902040404 23 355 0.0 0.0 0.00 0.00 0.00 86 1018.3
20260902035903 23 355 0.0 0.0 0.00 0.00 0.00 85 1018.3
20260902035403 23 355 0.0 0.0 0.00 0.00 0.00 85 1018.3
20260902034904 23 355 0.0 0.0 0.00 0.00 0.00 85 1018.3
20260902034402 23 355 0.0 0.0 0.00 0.00 0.00 85 1018.2
20260902033902 23 355 0.0 0.0 0.00 0.00 0.00 85 1018.2
20260902033404 23 355 0.0 0.0 0.00 0.00 0.00 84 1018.2
20260902032902 23 355 0.0 0.0 0.00 0.00 0.00 84 1018.2
20260902032403 23 355 0.0 0.0 0.00 0.00 0.00 84 1018.2
20260902031904 23 355 0.0 0.0 0.00 0.00 0.00 84 1018.2
20260902030903 23 355 0.0 0.0 0.00 0.00 0.00 83 1018.2
20260902030404 23 355 0.0 0.0 0.00 0.00 0.00 83 1018.2
20260902025903 23 355 0.0 0.0 0.00 0.00 0.00 83 1018.2
20260902024905 23 355 0.0 1.6 0.00 0.00 0.00 83 1018.2
20260902024402 24 355 1.6 1.6 0.00 0.00 0.00 82 1018.2
20260902023903 24 355 0.0 0.0 0.00 0.00 0.00 82 1018.2
20260902023404 24 355 0.0 0.0 0.00 0.00 0.00 82 1018.0
20260902022903 24 355 0.0 1.6 0.00 0.00 0.00 82 1018.0
20260902022402 24 355 0.0 1.6 0.00 0.00 0.00 81 1018.0
20260902021904 24 355 0.0 1.6 0.00 0.00 0.00 81 1018.0
20260902020903 24 355 1.6 1.6 0.00 0.00 0.00 81 1018.0
20260902020404 25 355 0.0 1.6 0.00 0.00 0.00 80 1018.0
20260902015903 25 355 0.0 0.0 0.00 0.00 0.00 80 1018.1
20260902015403 25 355 0.0 0.0 0.00 0.00 0.00 79 1018.1
20260902014904 25 355 0.0 0.0 0.00 0.00 0.00 79 1018.1
20260902014403 25 355 0.0 1.6 0.00 0.00 0.00 78 1018.0
20260902013903 25 355 0.0 0.0 0.00 0.00 0.00 77 1018.0
20260902013404 25 355 0.0 0.0 0.00 0.00 0.00 76 1018.0
20260902012403 25 355 0.0 0.0 0.00 0.00 0.00 75 1017.7
20260902011904 26 355 0.0 0.0 0.00 0.00 0.00 74 1017.7
20260902011402 26 355 0.0 0.0 0.00 0.00 0.00 73 1017.4
20260902010903 26 355 0.0 0.0 0.00 0.00 0.00 73 1017.4
20260902010404 26 355 0.0 0.0 0.00 0.00 0.00 73 1017.4
20260902005903 26 355 0.0 1.6 0.00 0.00 0.00 73 1017.4
20260902004905 26 355 0.0 0.0 0.00 0.00 0.00 71 1017.4
20260902004403 26 355 0.0 1.6 0.00 0.00 0.00 70 1017.3
20260902003903 26 355 1.6 1.6 0.00 0.00 0.00 70 1017.3
20260902003403 27 355 0.0 0.0 0.00 0.00 0.00 69 1017.3
20260902002903 27 355 0.0 0.0 0.00 0.00 0.00 69 1017.3
20260902002403 27 355 0.0 1.6 0.00 0.00 0.00 69 1017.3
20260902001905 27 355 0.0 1.6 0.00 0.00 0.00 68 1017.3
20260902001403 27 355 0.0 0.0 0.00 0.00 0.00 67 1017.2
20260902000406 28 355 1.6 1.6 0.00 0.00 0.00 66 1017.2
20260901235904 28 355 0.0 1.6 0.00 0.00 0.00 66 1017.4
20260901235403 28 355 0.0 0.0 0.00 0.00 0.00 64 1017.4
20260901234905 28 355 0.0 0.0 0.00 0.00 0.00 64 1017.4
20260901232903 30 355 0.0 0.0 0.00 0.00 0.00 61 1017.6
20260901232403 30 355 0.0 0.0 0.00 0.00 0.00 61 1017.6
20260901231403 30 355 0.0 0.0 0.00 0.00 0.00 61 1017.5
20260901230903 30 355 0.0 0.0 0.00 0.00 0.00 61 1017.5
20260901225903 31 355 0.0 0.0 0.00 0.00 0.00 60 1017.5
20260901225403 31 355 0.0 0.0 0.00 0.00 0.00 61 1017.5
20260901224904 31 355 0.0 1.6 0.00 0.00 0.00 60 1017.5
20260901224403 31 355 0.0 1.6 0.00 0.00 0.00 59 1017.4
20260901223404 32 355 0.0 1.6 0.00 0.00 0.00 57 1017.4
20260901221903 34 355 0.0 0.0 0.00 0.00 0.00 52 1017.4
20260901221404 35 355 0.0 0.0 0.00 0.00 0.00 53 1017.4
20260901220903 35 355 0.0 1.6 0.00 0.00 0.00 52 1017.4
20260901220403 35 355 0.0 0.0 0.00 0.00 0.00 52 1017.4
20260901215905 35 355 0.0 0.0 0.00 0.00 0.00 51 1017.4
20260901215403 35 355 0.0 0.0 0.00 0.00 0.00 50 1017.4
20260901214903 36 355 0.0 0.0 0.00 0.00 0.00 50 1017.4
20260901214404 35 355 0.0 0.0 0.00 0.00 0.00 50 1017.5
20260901213403 35 355 0.0 0.0 0.00 0.00 0.00 50 1017.5
20260901212903 36 355 0.0 1.6 0.00 0.00 0.00 50 1017.5
20260901212404 36 355 0.0 1.6 0.00 0.00 0.00 50 1017.5
20260901211903 36 355 0.0 3.2 0.00 0.00 0.00 48 1017.5
20260901210403 36 355 0.0 1.6 0.00 0.00 0.00 47 1017.5
20260901205903 36 355 0.0 1.6 0.00 0.00 0.00 48 1017.5
20260901205404 36 355 0.0 4.8 0.00 0.00 0.00 49 1017.7
20260901204403 36 328 1.6 3.2 0.00 0.00 0.00 47 1017.7
20260901203904 36 15 0.0 3.2 0.00 0.00 0.00 50 1017.7
20260901203403 36 15 0.0 3.2 0.00 0.00 0.00 50 1017.7
20260901202404 36 15 0.0 1.6 0.00 0.00 0.00 48 1017.9
20260901201904 36 15 0.0 1.6 0.00 0.00 0.00 50 1017.9
20260901201403 35 15 3.2 4.8 0.00 0.00 0.00 49 1018.0
20260901200903 35 9 1.6 4.8 0.00 0.00 0.00 46 1018.0
20260901195904 35 175 1.6 4.8 0.00 0.00 0.00 46 1018.1
20260901195403 35 355 0.0 3.2 0.00 0.00 0.00 49 1018.1
20260901194903 35 355 1.6 3.2 0.00 0.00 0.00 50 1018.1
20260901194405 35 355 0.0 3.2 0.00 0.00 0.00 48 1018.3
20260901193403 35 61 1.6 3.2 0.00 0.00 0.00 48 1018.4
20260901192904 35 42 1.6 4.8 0.00 0.00 0.00 47 1018.5
20260901192403 35 10 0.0 1.6 0.00 0.00 0.00 47 1018.5
20260901191904 35 13 1.6 4.8 0.00 0.00 0.00 48 1018.5
20260901190903 35 33 3.2 8.0 0.00 0.00 0.00 46 1018.7
20260901190403 35 43 1.6 4.8 0.00 0.00 0.00 45 1018.7
20260901185905 35 267 0.0 3.2 0.00 0.00 0.00 47 1018.9
20260901184904 35 355 1.6 4.8 0.00 0.00 0.00 44 1018.9
20260901184405 35 185 0.0 3.2 0.00 0.00 0.00 46 1019.0
20260901183903 34 32 3.2 4.8 0.00 0.00 0.00 48 1019.0
20260901183404 34 38 3.2 4.8 0.00 0.00 0.00 51 1018.9
20260901182404 34 57 1.6 4.8 0.00 0.10 0.00 51 1019.0
20260901181404 33 18 1.6 3.2 0.00 0.10 0.00 51 1019.2
20260901180904 33 74 3.2 8.0 0.00 0.10 0.00 53 1019.2
20260901180403 33 100 1.6 4.8 0.00 0.10 0.00 50 1019.2
20260901175405 34 248 4.8 8.0 0.00 0.10 0.00 48 1019.2
20260901174903 33 17 1.6 4.8 0.00 0.10 0.00 48 1019.2
20260901174404 33 73 1.6 4.8 0.00 0.10 0.00 49 1019.6
20260901173904 33 233 1.6 4.8 0.00 0.10 0.00 48 1019.6
20260901173403 34 327 1.6 4.8 0.00 0.10 0.00 49 1019.6
20260901172903 33 302 0.0 3.2 0.00 0.10 0.00 51 1019.7
20260901171904 33 225 3.2 4.8 0.00 0.10 0.00 52 1019.7
20260901171403 33 236 3.2 8.0 0.00 0.10 0.00 50 1020.0
20260901170904 33 34 0.0 3.2 0.00 0.10 0.00 54 1020.0
20260901170404 33 34 1.6 4.8 0.00 0.10 0.00 52 1020.0
20260901165404 32 82 3.2 4.8 0.00 0.10 0.00 55 1020.0
20260901164905 32 45 3.2 4.8 0.00 0.10 0.00 53 1020.1
20260901164404 32 66 0.0 4.8 0.00 0.10 0.00 55 1020.3